Location: Unspecified
(0.0000°N, 0.0000°E)
Time: 15:56:00
(UTC+00:00)

Tiangong - Pass Details

Date: 13 September 2024
Orbit: 374 x 377 km, 41.5° (Epoch: 15 September)

Event Time Altitude Azimuth Distance (km) Brightness Sun altitude
Rises 18:45:35 0° 252° (WSW) 2,228 3.1 -12.5°
Reaches altitude 10° 18:48:07 10° 273° (W) 1,375 2.2 -13.1°
Maximum altitude 18:50:14 17° 316° (NW) 1,039 0.7 -13.6°
Drops below altitude 10° 18:52:21 10° 360° (N) 1,370 0.7 -14.1°
Enters shadow 18:54:37 - 20° (NNE) 2,120 1.5 -14.7°
